Etusivu
METAR-TAF:

METAR-TAF

Lentoasemat :

Newton Municipal Airport

Newton, Iowa, Yhdysvallat

Leveyspiiri: 41-41N, Pituuspiiri: 093-01W, korkeus merenpinnasta: 290 m

Tämänhetkinen sää

Tämä raportti tehtiin 13 minuuttia sitten, kello 13.35 UTC
tyyntä
Lämpötila -6°C
Kosteus 86%
Ilmanpaine 1027 hPa
Näkyvyys: 14.5 km
selkeää

METAR: KTNU 151335Z AUTO 00000KT 9SM CLR M06/M08 A3034 RMK A01

Aika: 07:48 (13:48 UTC)


TAF: puuttuu

Säähavainnot ja -ennusteet yli 4000 lentoasemalta (METAR- ja TAF-raportit).

Käytössä olevat sääasemat on merkitty karttaan keltaisilla ja punaisilla pisteillä.

Aseta hiiri pisteen päälle nähdäksesi sääaseman nimen.

Klikkaa sitten nähdäksesi säähavainnot ja -ennusteet.

Kartan vaihtaminen: klikkaa mustalla rastilla varustettuja vihreitä pisteitä, niin voit zoomata sisään; viivalla varustettua vihreää pistettä, niin voit zoomata ulos tai vihreitä nuolia, niin pääset viereisille kartoille.


METAR-TAF: